Regional Weather Roundup
Issued by NWS

Home | Current Version | Previous Version | Graphics & Text | Print | Product List | Glossary On
Versions: 1 2 3 4 5 6 7 8 9 10 11 12 13 14 15 16 17 18 19 20 21 22 23 24 25 26 27
000
ASUS45 KBOU 220907
RWRCO

WEATHER ROUNDUP FOR COLORADO
NATIONAL WEATHER SERVICE DENVER/BOULDER CO
300 AM MDT FRI JUL 22 2016

NOTE: "FAIR" INDICATES FEW OR NO CLOUDS BELOW 12000 FEET WITH NO
SIGNIFICANT WEATHER AND/OR OBSTRUCTIONS TO VISIBILITY.

COZ001>005-013-030-031-221000-
...NORTHWEST COLORADO...

CITY           SKY/WX    TMP DP  RH WIND       PRES   REMARKS
CRAIG          FAIR      50  45  83 CALM      30.35F
HAYDEN         FAIR      55  46  71 E8        30.37F
MEEKER         FAIR      55  50  83 E5        30.36F
MOUNT WERNER   NOT AVBL
STEAMBOAT SPGS FAIR      51  46  84 CALM      30.40F
WALDEN         FAIR      45  43  93 SE7       30.51S
$$

COZ006>008-011-221000-
...WEST CENTRAL VALLEYS...

CITY           SKY/WX    TMP DP  RH WIND       PRES   REMARKS
GRAND JUNCTION FAIR      71  54  54 SE9       30.23S
MONTROSE       FAIR      63  55  75 SE5       30.34S
EAGLE          FAIR      55  52  88 CALM      30.44S
RIFLE          FAIR      61  51  70 E3        30.31S
DELTA          FAIR      68  57  67 N6        30.30S
NUCLA          FAIR      63  55  77 E7        30.37F
$$

COZ017>023-064>068-221000-
...SOUTHWEST COLORADO...

CITY           SKY/WX    TMP DP  RH WIND       PRES   REMARKS
DURANGO        FAIR      64  53  67 NE3       30.37F
CORTEZ         MOCLDY    64  56  75 SE6       30.32S
PAGOSA SPRINGS FAIR      58  50  73 NE6       30.47F
TELLURIDE      FAIR      60  49  68 CALM      30.58F
WOLF CREEK PAS FAIR      46  39  76 CALM      30.81F
$$

COZ009-010-012-014-032>034-037-058>063-221000-
...CENTRAL COLORADO...

CITY           SKY/WX    TMP DP  RH WIND       PRES   REMARKS
ASPEN          FAIR      53  51  93 S3        30.47S
BUENA VISTA    FAIR      53  51  92 NW3       30.51F
COPPER MTN     FAIR      55  39  54 S13       30.78F
BERTHOUD PASS  FAIR      46  32  57 SW10      30.82S
COTTONWOOD PAS FAIR      57  45  62 CALM      30.64S
GUNNISON       FAIR      55  52  88 N7        30.52F
KREMMLING      MOCLDY    50  46  87 CALM      30.49S
LEADVILLE      FAIR      44  42  93 NE5       30.62F
MONARCH PASS   FAIR      50  41  71 S5        30.89F
SALIDA         FAIR      57  53  86 W3        30.54F
SUNLIGHT       FAIR      52  46  82 CALM      30.70F
WILKERSON PASS FAIR      50  41  71 SW8       30.75F
$$

COZ069>075-221000-
...SAN LUIS VALLEY/SANGRE DE CRISTO MOUNTAINS...

CITY           SKY/WX    TMP DP  RH WIND       PRES   REMARKS
ALAMOSA        FAIR      59  50  72 W7        30.46F
LA VETA PASS   FAIR      54  41  62 SW3       30.65F
SAGUACHE       FAIR      59  50  72 N8        30.49F
$$

COZ035-036-038>040-221000-
...NORTHERN COLORADO FRONT RANGE...

CITY           SKY/WX    TMP DP  RH WIND       PRES   REMARKS
DENVER INTL AP MOCLDY    75  49  39 SW8       30.23S
DMNS CITY PARK   N/A     74  50  42 S3G10     30.23S
AURORA         MOCLDY    70  51  50 S9        30.26S
FRONT RANGE AP NOT AVBL
ERIE MUNI ARPT FAIR      71  51  49 CALM      30.21S
BOULDER MUN AP LGT RAIN  72  50  46 S3        30.22S
CENTENNIAL     FAIR      69  48  47 CALM      30.27F
BROOMFIELD     FAIR      73  46  38 CALM      30.26S
LONGMONT       FAIR      71  52  50 CALM      30.22S
$$

COZ041-046-047-076>085-087-088-221000-
...PIKES PEAK/PALMER DIVIDE AND SOUTHERN FOOTHILLS...

CITY           SKY/WX    TMP DP  RH WIND       PRES   REMARKS
COLO. SPRINGS  MOCLDY    70  51  51 N12       30.31F
A. F. ACADEMY  FAIR      62  48  60 VRB7      30.33F
SCHRIEVER AFB  NOT AVBL
ELLICOTT       FAIR     N/A N/A N/A CALM      30.29F
FALCON         NOT AVBL
FORT CARSON    CLOUDY    67  55  64 N6        30.27F
LIMON          FAIR      65  50  58 W8        30.23F
MONUMENT HILL  FAIR      61  46  59 SW7       30.39F
TRINIDAD       NOT AVBL
$$

COZ042>045-048>051-090-091-221000-
...NORTHEAST COLORADO...

CITY           SKY/WX    TMP DP  RH WIND       PRES   REMARKS
GREELEY ARPT   FAIR      68  57  68 CALM      30.19S
AKRON          FAIR      70  53  54 W9        30.16F
BURLINGTON     FAIR      75  60  59 NW10      30.11F
WRAY           FAIR      68  59  73 SW6       30.09F
STERLING       FAIR      66  61  82 CALM      30.12S
HOLYOKE        FAIR      70  64  83 W5        30.10F
FORT MORGAN    FAIR      64  55  70 W6        30.16F
$$

COZ086-089-092>099-221000-
...SOUTHEAST COLORADO...

CITY           SKY/WX    TMP DP  RH WIND       PRES   REMARKS
PUEBLO         FAIR      73  51  46 NW7       30.18F
LA JUNTA       FAIR      76  52  43 NW12      30.12F
LAMAR          FAIR      70  58  65 NW10      30.07F
SPRINGFIELD      N/A     73  53  49 S6        30.16S
$$




USA.gov is the U.S. government's official web portal to all federal, state and local government web resources and services.